GW0381 Weather Reports


Display with metric or nautical units.
time (UTC)temp
F
wind
direction
speed
MPH
gust
MPH
rain 1hr
in
rain 24hr
in
rain mn
in
humidity
%
barometer
mb
20260510153917 68 61 1.0 3.0 0.00 0.00 0.00 50 1009.6
20260510153616 68 53 0.0 1.0 0.00 0.00 0.00 49 1009.6
20260510153315 67 53 0.0 1.0 0.00 0.00 0.00 50 1009.7
20260510153017 67 53 0.0 2.0 0.00 0.00 0.00 50 1009.7
20260510152717 67 53 1.0 3.0 0.00 0.00 0.00 53 1009.7
20260510152417 67 57 1.0 3.0 0.00 0.00 0.00 53 1009.8
20260510152119 67 74 0.0 2.0 0.00 0.00 0.00 52 1009.8
20260510151817 67 74 1.0 2.0 0.00 0.00 0.00 52 1009.8
20260510151516 67 75 1.0 2.0 0.00 0.00 0.00 51 1009.9
20260510151215 67 75 0.0 1.0 0.00 0.00 0.00 52 1009.9
20260510150920 67 75 1.0 3.0 0.00 0.00 0.00 52 1010.0
20260510150617 67 75 1.0 2.0 0.00 0.00 0.00 50 1009.9
20260510150317 68 75 0.0 1.0 0.00 0.00 0.00 49 1010.0
20260510150056 68 75 1.0 2.0 0.00 0.00 0.00 49 1010.0
20260510145717 68 82 1.0 2.0 0.00 0.00 0.00 50 1010.1
20260510145416 68 88 0.0 1.0 0.00 0.00 0.00 48 1010.1
20260510145115 68 88 1.0 3.0 0.00 0.00 0.00 48 1010.1
20260510144941 68 98 1.0 4.0 0.00 0.00 0.00 50 1010.1
20260510144517 68 110 1.0 3.0 0.00 0.00 0.00 50 1010.2
20260510144216 67 110 0.0 2.0 0.00 0.00 0.00 51 1010.2
20260510143956 67 110 2.0 3.0 0.00 0.00 0.00 50 1010.3
20260510143620 67 60 2.0 4.0 0.00 0.00 0.00 51 1010.3
20260510143316 67 337 0.0 2.0 0.00 0.00 0.00 50 1010.4
20260510143015 67 307 0.0 2.0 0.00 0.00 0.00 50 1010.4
20260510142718 68 307 1.0 3.0 0.00 0.00 0.00 49 1010.4
20260510142420 68 307 1.0 2.0 0.00 0.00 0.00 50 1010.5
20260510142118 68 307 0.0 2.0 0.00 0.00 0.00 50 1010.5
20260510141816 68 307 0.0 1.0 0.00 0.00 0.00 48 1010.6
20260510141517 68 305 2.0 4.0 0.00 0.00 0.00 50 1010.6
20260510141216 69 313 4.0 10.0 0.00 0.00 0.00 51 1010.6
20260510140918 69 311 3.0 9.0 0.00 0.00 0.00 51 1010.6
20260510140616 68 312 2.0 4.0 0.00 0.00 0.00 51 1010.7
20260510140358 68 291 3.0 7.0 0.00 0.00 0.00 49 1010.7
20260510140018 68 318 2.0 5.0 0.00 0.00 0.00 50 1010.7
20260510135716 68 294 0.0 1.0 0.00 0.00 0.00 49 1010.8
20260510135415 69 301 1.0 4.0 0.00 0.00 0.00 48 1010.8
20260510135156 68 307 1.0 4.0 0.00 0.00 0.00 50 1010.9
20260510134815 68 0.0 0.0 0.00 0.00 0.00 50 1010.9
20260510134557 68 0.0 0.0 0.00 0.00 0.00 50 1010.9
20260510134215 67 304 1.0 3.0 0.00 0.00 0.00 50 1011.0
20260510133918 68 281 1.0 4.0 0.00 0.00 0.00 53 1011.0
20260510133616 68 348 1.0 4.0 0.00 0.00 0.00 52 1011.0
20260510133317 68 26 1.0 3.0 0.00 0.00 0.00 49 1011.1
20260510133016 68 259 0.0 2.0 0.00 0.00 0.00 48 1011.2
20260510132758 69 259 0.0 1.0 0.00 0.00 0.00 50 1011.2
20260510132418 68 259 1.0 3.0 0.00 0.00 0.00 51 1011.3
20260510132157 67 268 1.0 4.0 0.00 0.00 0.00 53 1011.3
20260510131900 67 277 0.0 2.0 0.00 0.00 0.00 53 1011.3
20260510131516 68 277 0.0 1.0 0.00 0.00 0.00 52 1011.3
20260510131217 68 277 0.0 1.0 0.00 0.00 0.00 51 1011.3
20260510130956 69 278 2.0 4.0 0.00 0.00 0.00 51 1011.4
20260510130620 68 317 1.0 4.0 0.00 0.00 0.00 50 1011.5
20260510130357 68 295 1.0 2.0 0.00 0.00 0.00 50 1011.5
20260510130017 69 299 5.0 8.0 0.00 0.00 0.00 51 1011.5
20260510125717 69 320 2.0 5.0 0.00 0.00 0.00 50 1011.5
20260510125416 69 327 5.0 8.0 0.00 0.00 0.00 52 1011.5
20260510125117 68 325 3.0 6.0 0.00 0.00 0.00 56 1011.5
20260510124816 67 312 1.0 4.0 0.00 0.00 0.00 51 1011.6
20260510124517 68 250 2.0 4.0 0.00 0.00 0.00 51 1011.6
20260510124340 68 250 3.0 7.0 0.00 0.00 0.00 48 1011.6
20260510123917 68 233 3.0 6.0 0.00 0.00 0.00 50 1011.7
20260510123618 68 179 2.0 5.0 0.00 0.00 0.00 49 1011.7
20260510123315 68 138 4.0 7.0 0.00 0.00 0.00 49 1011.7
20260510123057 69 222 2.0 7.0 0.00 0.00 0.00 47 1011.7
20260510122836 69 239 2.0 3.0 0.00 0.00 0.00 49 1011.7
20260510122417 69 245 2.0 5.0 0.00 0.00 0.00 49 1011.8
20260510122116 69 234 3.0 5.0 0.00 0.00 0.00 50 1011.8
20260510121817 69 221 4.0 6.0 0.00 0.00 0.00 49 1011.9
20260510121557 69 242 2.0 7.0 0.00 0.00 0.00 49 1011.9
20260510121216 69 294 1.0 6.0 0.00 0.00 0.00 50 1011.9
20260510120956 68 113 3.0 5.0 0.00 0.00 0.00 48 1011.9
20260510120616 69 166 4.0 7.0 0.00 0.00 0.00 48 1012.0
20260510120318 68 217 4.0 9.0 0.00 0.00 0.00 50 1012.0
20260510120017 68 35 3.0 6.0 0.00 0.00 0.00 49 1012.0
20260510115717 68 205 3.0 7.0 0.00 0.00 0.00 49 1012.0
20260510115420 68 202 6.0 12.0 0.00 0.00 0.00 50 1012.2
20260510115116 68 238 3.0 10.0 0.00 0.00 0.00 49 1012.2
20260510114817 69 194 3.0 5.0 0.00 0.00 0.00 48 1012.2
20260510114515 69 222 3.0 6.0 0.00 0.00 0.00 50 1012.2
20260510114221 69 248 2.0 5.0 0.00 0.00 0.00 51 1012.3
20260510113917 68 206 2.0 4.0 0.00 0.00 0.00 52 1012.3
20260510113618 68 101 0.0 2.0 0.00 0.00 0.00 50 1012.4
20260510113315 68 163 1.0 3.0 0.00 0.00 0.00 49 1012.4
20260510113015 68 239 3.0 5.0 0.00 0.00 0.00 50 1012.5
20260510112717 68 242 3.0 5.0 0.00 0.00 0.00 51 1012.5
20260510112456 68 219 4.0 9.0 0.00 0.00 0.00 53 1012.5
20260510112117 67 266 3.0 6.0 0.00 0.00 0.00 51 1012.5
20260510111817 67 212 3.0 6.0 0.00 0.00 0.00 52 1012.6
20260510111517 67 218 3.0 5.0 0.00 0.00 0.00 52 1012.6
20260510110915 66 281 1.0 5.0 0.00 0.00 0.00 55 1012.7
20260510110617 66 330 1.0 2.0 0.00 0.00 0.00 55 1012.8
20260510110319 66 330 0.0 1.0 0.00 0.00 0.00 54 1012.8
20260510110017 66 321 1.0 3.0 0.00 0.00 0.00 55 1012.8
20260510105717 66 313 2.0 4.0 0.00 0.00 0.00 56 1012.8
20260510105417 66 297 2.0 3.0 0.00 0.00 0.00 53 1012.8
20260510105117 66 310 2.0 6.0 0.00 0.00 0.00 54 1012.8
20260510104816 66 291 4.0 6.0 0.00 0.00 0.00 54 1012.9
20260510104517 66 271 6.0 9.0 0.00 0.00 0.00 53 1012.9
20260510104216 66 260 1.0 3.0 0.00 0.00 0.00 52 1013.0
20260510103917 66 234 3.0 9.0 0.00 0.00 0.00 51 1012.9
20260510103700 66 196 2.0 5.0 0.00 0.00 0.00 54 1013.0
20260510103318 66 157 2.0 4.0 0.00 0.00 0.00 52 1013.0
20260510103017 65 176 2.0 5.0 0.00 0.00 0.00 54 1013.1
20260510102715 65 160 3.0 6.0 0.00 0.00 0.00 54 1013.1
20260510102416 65 166 3.0 7.0 0.00 0.00 0.00 53 1013.1
20260510102120 65 169 4.0 9.0 0.00 0.00 0.00 53 1013.2
20260510101817 65 138 6.0 9.0 0.00 0.00 0.00 54 1013.2
20260510101517 66 107 3.0 5.0 0.00 0.00 0.00 53 1013.2
20260510101256 66 150 5.0 11.0 0.00 0.00 0.00 54 1013.2
20260510100917 66 182 4.0 7.0 0.00 0.00 0.00 52 1013.3
20260510100739 67 150 5.0 10.0 0.00 0.00 0.00 53 1013.3
20260510100317 67 95 9.0 12.0 0.00 0.00 0.00 52 1013.3
20260510100016 67 83 5.0 10.0 0.00 0.00 0.00 53 1013.4
20260510095757 66 69 2.0 6.0 0.00 0.00 0.00 56 1013.4
20260510095541 65 112 5.0 9.0 0.00 0.00 0.00 55 1013.5
20260510095117 65 120 3.0 6.0 0.00 0.00 0.00 54 1013.5
20260510094816 66 144 6.0 11.0 0.00 0.00 0.00 54 1013.6
20260510094515 66 102 3.0 9.0 0.00 0.00 0.00 54 1013.7
20260510094217 65 102 4.0 9.0 0.00 0.00 0.00 53 1013.7
20260510093918 65 116 1.0 3.0 0.00 0.00 0.00 54 1013.7
20260510093615 65 161 4.0 8.0 0.00 0.00 0.00 55 1013.7
20260510093317 64 118 8.0 13.0 0.00 0.00 0.00 54 1013.7
20260510093020 64 112 6.0 10.0 0.00 0.00 0.00 55 1013.8
20260510092758 64 138 4.0 10.0 0.00 0.00 0.00 54 1013.8
20260510092415 64 152 6.0 11.0 0.00 0.00 0.00 55 1013.8
20260510092117 64 133 6.0 11.0 0.00 0.00 0.00 54 1013.8
20260510091859 64 138 7.0 10.0 0.00 0.00 0.00 55 1013.8
20260510091557 64 118 8.0 15.0 0.00 0.00 0.00 55 1013.7
20260510091218 64 126 7.0 13.0 0.00 0.00 0.00 55 1013.8
20260510090920 64 94 7.0 12.0 0.00 0.00 0.00 56 1013.8
20260510090618 64 113 5.0 9.0 0.00 0.00 0.00 56 1013.9
20260510090403 63 121 8.0 13.0 0.00 0.00 0.00 56 1014.0
20260510090017 64 124 7.0 11.0 0.00 0.00 0.00 56 1014.1
20260510085716 63 103 6.0 10.0 0.00 0.00 0.00 57 1014.1
20260510085417 63 165 5.0 10.0 0.00 0.00 0.00 56 1014.1
20260510085120 63 162 5.0 9.0 0.00 0.00 0.00 55 1014.1
20260510084817 62 153 5.0 10.0 0.00 0.00 0.00 55 1014.2
20260510084517 62 147 7.0 11.0 0.00 0.00 0.00 56 1014.2
20260510084255 62 149 7.0 10.0 0.00 0.00 0.00 55 1014.2
20260510083917 62 143 9.0 13.0 0.00 0.00 0.00 56 1014.3
20260510083616 62 139 8.0 12.0 0.00 0.00 0.00 56 1014.2
20260510083317 62 147 9.0 12.0 0.00 0.00 0.00 55 1014.3
20260510083018 62 123 10.0 15.0 0.00 0.00 0.00 57 1014.4
20260510082717 62 157 5.0 10.0 0.00 0.00 0.00 58 1014.4
20260510082418 62 147 5.0 10.0 0.00 0.00 0.00 58 1014.5
20260510082115 63 149 7.0 10.0 0.00 0.00 0.00 58 1014.5
20260510081857 63 141 5.0 8.0 0.00 0.00 0.00 60 1014.6
20260510081516 62 128 5.0 9.0 0.00 0.00 0.00 60 1014.6
20260510081217 62 137 6.0 9.0 0.00 0.00 0.00 59 1014.6
20260510080918 62 122 7.0 13.0 0.00 0.00 0.00 61 1014.6
20260510080618 61 169 3.0 7.0 0.00 0.00 0.00 62 1014.6
20260510080316 61 118 4.0 8.0 0.00 0.00 0.00 62 1014.7
20260510080015 61 129 6.0 10.0 0.00 0.00 0.00 63 1014.7
20260510075717 61 114 6.0 10.0 0.00 0.00 0.00 64 1014.7
20260510075415 61 99 5.0 9.0 0.00 0.00 0.00 65 1014.8
20260510075119 61 99 5.0 9.0 0.00 0.00 0.00 65 1014.8
20260510074817 61 120 3.0 8.0 0.00 0.00 0.00 66 1014.8
20260510074518 60 106 5.0 9.0 0.00 0.00 0.00 66 1014.8
20260510074218 60 128 6.0 9.0 0.00 0.00 0.00 66 1014.8
20260510073915 60 136 6.0 9.0 0.00 0.00 0.00 66 1014.9
20260510073657 60 117 6.0 9.0 0.00 0.00 0.00 66 1014.9
20260510073359 60 112 6.0 11.0 0.00 0.00 0.00 66 1015.0
20260510073017 59 116 5.0 12.0 0.00 0.00 0.00 67 1014.9
20260510072715 59 129 5.0 10.0 0.00 0.00 0.00 67 1015.0
20260510072417 59 127 7.0 10.0 0.00 0.00 0.00 68 1015.0
20260510072121 58 125 7.0 11.0 0.00 0.00 0.00 68 1015.1
20260510071815 58 118 7.0 10.0 0.00 0.00 0.00 69 1015.2
20260510071516 58 120 7.0 12.0 0.00 0.00 0.00 69 1015.2
20260510071216 58 131 7.0 11.0 0.00 0.00 0.00 70 1015.2
20260510070917 57 129 8.0 12.0 0.00 0.00 0.00 70 1015.2
20260510070618 57 136 8.0 12.0 0.00 0.00 0.00 71 1015.2
20260510070358 57 131 8.0 12.0 0.00 0.00 0.00 71 1015.2
20260510070018 57 130 8.0 12.0 0.00 0.00 0.00 73 1015.2
20260510065715 56 115 5.0 9.0 0.00 0.00 0.00 75 1015.2
20260510065416 56 103 5.0 8.0 0.00 0.00 0.00 75 1015.1
20260510065156 55 135 6.0 9.0 0.00 0.00 0.00 76 1015.1
20260510064817 55 131 5.0 12.0 0.00 0.00 0.00 77 1015.3
20260510064518 55 116 4.0 6.0 0.00 0.00 0.00 77 1015.3
20260510064217 54 122 4.0 8.0 0.00 0.00 0.00 78 1015.3
20260510063918 54 112 6.0 10.0 0.00 0.00 0.00 78 1015.3
20260510063615 54 118 3.0 9.0 0.00 0.00 0.00 79 1015.3
20260510063400 53 118 4.0 7.0 0.00 0.00 0.00 80 1015.3
20260510063015 53 125 4.0 8.0 0.00 0.00 0.00 80 1015.3
20260510062717 52 119 6.0 9.0 0.00 0.00 0.00 80 1015.3
20260510062418 52 116 4.0 10.0 0.00 0.00 0.00 81 1015.3
20260510062201 52 85 4.0 7.0 0.00 0.00 0.00 81 1015.3
20260510061816 51 106 3.0 6.0 0.00 0.00 0.00 82 1015.3
20260510061515 51 107 4.0 9.0 0.00 0.00 0.00 82 1015.3
20260510061217 51 110 6.0 10.0 0.00 0.00 0.00 82 1015.3
20260510060956 51 104 5.0 9.0 0.00 0.00 0.00 83 1015.3
20260510060619 50 100 5.0 8.0 0.00 0.00 0.00 83 1015.3
20260510060317 50 109 5.0 7.0 0.00 0.00 0.00 84 1015.4
20260510060017 50 96 4.0 9.0 0.00 0.00 0.00 85 1015.4
20260510055718 49 93 4.0 8.0 0.00 0.00 0.00 85 1015.5
20260510055415 49 92 6.0 8.0 0.00 0.00 0.00 85 1015.5
20260510055157 49 88 5.0 8.0 0.00 0.00 0.00 86 1015.5
20260510054815 49 109 4.0 8.0 0.00 0.00 0.00 87 1015.5
20260510054520 48 108 5.0 10.0 0.00 0.00 0.00 87 1015.4
20260510054301 48 120 4.0 6.0 0.00 0.00 0.00 88 1015.4
20260510053917 48 95 4.0 7.0 0.00 0.00 0.00 88 1015.5
20260510053618 48 108 5.0 8.0 0.00 0.00 0.00 88 1015.5
20260510053315 48 110 5.0 8.0 0.00 0.00 0.00 89 1015.5
20260510053015 47 105 4.0 9.0 0.00 0.00 0.00 89 1015.6
20260510052716 47 113 4.0 6.0 0.00 0.00 0.00 89 1015.7
20260510052417 47 114 5.0 7.0 0.00 0.00 0.00 90 1015.7
20260510052118 47 117 3.0 5.0 0.00 0.00 0.00 90 1015.8
20260510051856 46 121 3.0 5.0 0.00 0.00 0.00 90 1015.8
20260510051518 46 121 2.0 4.0 0.00 0.00 0.00 90 1015.8
20260510051215 46 129 3.0 7.0 0.00 0.00 0.00 90 1015.8
20260510050916 46 119 4.0 7.0 0.00 0.00 0.00 90 1015.8
20260510050615 46 122 3.0 5.0 0.00 0.00 0.00 90 1015.7
20260510050317 45 105 2.0 4.0 0.00 0.00 0.00 90 1015.8
20260510050018 45 108 3.0 5.0 0.00 0.00 0.00 90 1015.8
20260510045718 45 114 3.0 5.0 0.00 0.00 0.00 90 1015.7
20260510045418 45 109 2.0 4.0 0.00 0.00 0.00 90 1015.7
20260510045115 45 114 2.0 3.0 0.00 0.00 0.00 90 1015.8
20260510044819 45 115 2.0 3.0 0.00 0.00 0.00 90 1015.8
20260510044516 45 105 2.0 3.0 0.00 0.00 0.00 90 1015.8
20260510044257 45 105 1.0 3.0 0.00 0.00 0.00 90 1015.8
20260510043918 44 105 2.0 3.0 0.00 0.00 0.00 90 1015.9
20260510043620 44 105 1.0 2.0 0.00 0.00 0.00 90 1015.9
20260510043317 44 105 2.0 3.0 0.00 0.00 0.00 90 1015.8
20260510043015 44 111 2.0 3.0 0.00 0.00 0.00 90 1015.8
20260510042756 44 110 3.0 5.0 0.00 0.00 0.00 90 1015.9
20260510042416 44 114 2.0 4.0 0.00 0.00 0.00 90 1015.9
20260510042117 44 101 2.0 3.0 0.00 0.00 0.00 90 1015.9
20260510041818 44 103 2.0 3.0 0.00 0.00 0.00 90 1015.8
20260510041517 44 104 2.0 4.0 0.00 0.00 0.00 90 1015.8
20260510041217 44 113 2.0 4.0 0.00 0.00 0.00 90 1015.8
20260510040915 43 88 2.0 4.0 0.00 0.00 0.00 90 1015.8
20260510040616 43 91 3.0 4.0 0.00 0.00 0.00 90 1015.8
20260510040319 43 103 2.0 4.0 0.00 0.00 0.00 90 1015.8
20260510040017 43 100 2.0 3.0 0.00 0.00 0.00 90 1015.8
20260510035716 43 90 2.0 3.0 0.00 0.00 0.00 90 1015.8
20260510035417 43 91 2.0 4.0 0.00 0.00 0.00 90 1015.8
20260510035117 43 101 2.0 4.0 0.00 0.00 0.00 90 1015.7
20260510034815 43 92 2.0 4.0 0.00 0.00 0.00 90 1015.7
20260510034516 43 96 2.0 4.0 0.00 0.00 0.00 90 1015.7
20260510034218 43 109 3.0 5.0 0.00 0.00 0.00 90 1015.7
20260510033917 43 116 2.0 4.0 0.00 0.00 0.00 90 1015.6
20260510033901 43 103 3.0 4.0 0.00 0.00 0.00 90 1015.7
20260510033316 42 95 3.0 5.0 0.00 0.00 0.00 90 1015.6
20260510033018 42 95 3.0 4.0 0.00 0.00 0.00 90 1015.7
20260510032718 42 97 2.0 4.0 0.00 0.00 0.00 90 1015.7
20260510032417 42 93 3.0 4.0 0.00 0.00 0.00 90 1015.7
20260510032115 42 97 2.0 3.0 0.00 0.00 0.00 90 1015.8
20260510031816 42 97 2.0 3.0 0.00 0.00 0.00 90 1015.8
20260510031518 42 96 2.0 4.0 0.00 0.00 0.00 90 1015.9
20260510031217 42 86 2.0 4.0 0.00 0.00 0.00 90 1015.8
20260510030915 42 83 3.0 4.0 0.00 0.00 0.00 90 1015.9
20260510030618 42 85 3.0 4.0 0.00 0.00 0.00 90 1016.0
20260510030356 42 82 3.0 6.0 0.00 0.00 0.00 89 1016.0
20260510030018 42 85 2.0 4.0 0.00 0.00 0.00 89 1016.1
20260510025715 42 90 3.0 4.0 0.00 0.00 0.00 89 1016.2
20260510025418 42 98 2.0 3.0 0.00 0.00 0.00 89 1016.3
20260510025117 42 98 1.0 3.0 0.00 0.00 0.00 89 1016.4
20260510024818 42 98 2.0 3.0 0.00 0.00 0.00 89 1016.4
20260510024518 42 98 2.0 3.0 0.00 0.00 0.00 90 1016.4
20260510024216 42 98 1.0 2.0 0.00 0.00 0.00 89 1016.5
20260510023915 42 98 1.0 3.0 0.00 0.00 0.00 89 1016.4
20260510023616 42 98 1.0 2.0 0.00 0.00 0.00 89 1016.4
20260510023318 42 98 0.0 1.0 0.00 0.00 0.00 89 1016.4
20260510023017 42 98 0.0 1.0 0.00 0.00 0.00 89 1016.4
20260510022733 42 98 1.0 2.0 0.00 0.00 0.00 89 1016.4
20260510022417 42 98 2.0 3.0 0.00 0.00 0.00 89 1016.4
20260510022116 42 98 2.0 3.0 0.00 0.00 0.00 89 1016.4
20260510021815 42 86 2.0 4.0 0.00 0.00 0.00 89 1016.5
20260510021517 42 84 2.0 3.0 0.00 0.00 0.00 89 1016.5
20260510021216 42 84 2.0 3.0 0.00 0.00 0.00 89 1016.6
20260510020920 42 84 2.0 3.0 0.00 0.00 0.00 89 1016.6
20260510020658 42 87 2.0 3.0 0.00 0.00 0.00 89 1016.6
20260510020319 42 95 2.0 3.0 0.00 0.00 0.00 89 1016.6
20260510020019 42 95 1.0 3.0 0.00 0.00 0.00 89 1016.7
20260510015715 42 95 2.0 3.0 0.00 0.00 0.00 89 1016.6
20260510015417 42 90 3.0 4.0 0.00 0.00 0.00 89 1016.6
20260510015118 41 90 3.0 6.0 0.00 0.00 0.00 89 1016.6
20260510014816 41 95 2.0 3.0 0.00 0.00 0.00 89 1016.7
20260510014641 41 95 2.0 4.0 0.00 0.00 0.00 89 1016.7
20260510014218 41 95 2.0 4.0 0.00 0.00 0.00 89 1016.7
20260510013916 41 95 2.0 4.0 0.00 0.00 0.00 88 1016.8
20260510013655 41 95 2.0 3.0 0.00 0.00 0.00 89 1016.9
20260510013317 41 95 2.0 2.0 0.00 0.00 0.00 89 1017.0
20260510013018 41 95 1.0 2.0 0.00 0.00 0.00 89 1017.0
20260510012717 41 95 1.0 2.0 0.00 0.00 0.00 88 1017.1
20260510012418 41 95 1.0 2.0 0.00 0.00 0.00 88 1017.0
20260510012118 41 95 1.0 3.0 0.00 0.00 0.00 88 1017.0
20260510011816 41 95 1.0 2.0 0.00 0.00 0.00 89 1017.1
20260510011515 41 95 1.0 2.0 0.00 0.00 0.00 88 1017.2
20260510011219 41 95 1.0 2.0 0.00 0.00 0.00 88 1017.2
20260510010918 41 0.0 0.0 0.00 0.00 0.00 88 1017.3
20260510010617 42 0.0 0.0 0.00 0.00 0.00 88 1017.3
20260510010317 41 0.0 0.0 0.00 0.00 0.00 88 1017.4
20260510010019 42 0.0 0.0 0.00 0.00 0.00 88 1017.4
20260510005718 42 0.0 0.0 0.00 0.00 0.00 88 1017.4
20260510005415 42 0.0 0.0 0.00 0.00 0.00 88 1017.4
20260510005117 42 0.0 0.0 0.00 0.00 0.00 88 1017.4
20260510004818 42 0.0 0.0 0.00 0.00 0.00 88 1017.4
20260510004517 42 0.0 0.0 0.00 0.00 0.00 88 1017.4
20260510004217 42 0.0 0.0 0.00 0.00 0.00 88 1017.4
20260510003921 42 0.0 0.0 0.00 0.00 0.00 88 1017.5
20260510003616 42 0.0 0.0 0.00 0.00 0.00 88 1017.5
20260510003315 42 0.0 0.0 0.00 0.00 0.00 88 1017.5
20260510003016 42 0.0 0.0 0.00 0.00 0.00 88 1017.5
20260510002717 42 0.0 0.0 0.00 0.00 0.00 88 1017.5
20260510002417 42 0.0 0.0 0.00 0.00 0.00 88 1017.6
20260510002118 42 0.0 0.0 0.00 0.00 0.00 88 1017.7
20260510001821 42 0.0 0.0 0.00 0.00 0.00 88 1017.7
20260510001516 43 0.0 0.0 0.00 0.00 0.00 88 1017.7
20260510001217 43 0.0 0.0 0.00 0.00 0.00 88 1017.6
20260510000916 43 95 0.0 1.0 0.00 0.00 0.00 88 1017.7
20260510000618 43 95 1.0 2.0 0.00 0.00 0.00 88 1017.7
20260510000318 43 95 1.0 1.0 0.00 0.00 0.00 88 1017.7
20260510000018 43 95 0.0 1.0 0.00 0.00 0.00 88 1017.7
20260509235721 43 95 0.0 2.0 0.00 0.00 0.00 88 1017.8
20260509235416 43 95 1.0 2.0 0.00 0.00 0.00 88 1017.9
20260509235116 43 95 0.0 1.0 0.00 0.00 0.00 88 1017.9
20260509234816 43 95 0.0 1.0 0.00 0.00 0.00 88 1017.9
20260509234518 43 95 0.0 1.0 0.00 0.00 0.00 88 1017.9
20260509234217 43 95 1.0 2.0 0.00 0.00 0.00 88 1017.9
20260509233916 43 95 1.0 2.0 0.00 0.00 0.00 87 1017.9
20260509233621 44 95 1.0 2.0 0.00 0.00 0.00 87 1017.9
20260509233316 44 95 0.0 1.0 0.00 0.00 0.00 87 1018.0
20260509233017 44 95 0.0 1.0 0.00 0.00 0.00 87 1018.0
20260509232716 44 95 0.0 1.0 0.00 0.00 0.00 87 1018.1
20260509232418 44 95 1.0 2.0 0.00 0.00 0.00 87 1018.1
20260509232117 44 95 1.0 2.0 0.00 0.00 0.00 87 1018.1
20260509231818 44 95 1.0 1.0 0.00 0.00 0.00 87 1018.2
20260509231636 44 95 1.0 1.0 0.00 0.00 0.00 87 1018.2
20260509231216 44 95 0.0 1.0 0.00 0.00 0.00 87 1018.2
20260509230957 44 95 1.0 1.0 0.00 0.00 0.00 87 1018.3
20260509230618 44 95 1.0 2.0 0.00 0.00 0.00 87 1018.3
20260509230359 44 95 0.0 1.0 0.00 0.00 0.00 87 1018.3
20260509230057 44 95 1.0 2.0 0.00 0.00 0.00 87 1018.3
20260509225718 44 95 0.0 1.0 0.00 0.00 0.00 87 1018.3
20260509225418 44 95 0.0 1.0 0.00 0.00 0.00 87 1018.4
20260509225115 45 95 1.0 2.0 0.00 0.00 0.00 87 1018.4
20260509224817 45 95 1.0 2.0 0.00 0.00 0.00 86 1018.4
20260509224516 45 95 0.0 1.0 0.00 0.00 0.00 86 1018.4
20260509224217 45 0.0 0.0 0.00 0.00 0.00 86 1018.5
20260509223915 45 0.0 0.0 0.00 0.00 0.00 86 1018.5
20260509223621 45 0.0 0.0 0.00 0.00 0.00 86 1018.6
20260509223318 45 0.0 0.0 0.00 0.00 0.00 86 1018.5
20260509223016 45 95 0.0 1.0 0.00 0.00 0.00 86 1018.4
20260509222717 45 95 0.0 1.0 0.00 0.00 0.00 86 1018.5
20260509222416 45 95 0.0 1.0 0.00 0.00 0.00 86 1018.5
20260509222118 45 95 1.0 1.0 0.00 0.00 0.00 86 1018.5
20260509221816 45 95 0.0 1.0 0.00 0.00 0.00 86 1018.5
20260509221517 45 95 1.0 1.0 0.00 0.00 0.00 86 1018.6
20260509221316 45 95 0.0 2.0 0.00 0.00 0.00 86 1018.6
20260509220916 45 95 0.0 1.0 0.00 0.00 0.00 86 1018.6
20260509220617 46 95 0.0 1.0 0.00 0.00 0.00 86 1018.6
20260509220316 46 0.0 0.0 0.00 0.00 0.00 86 1018.6
20260509220021 46 0.0 0.0 0.00 0.00 0.00 86 1018.7
20260509215716 46 95 0.0 1.0 0.00 0.00 0.00 86 1018.6
20260509215416 46 0.0 0.0 0.00 0.00 0.00 86 1018.6
20260509215118 45 0.0 0.0 0.00 0.00 0.00 86 1018.7
20260509214856 46 95 0.0 1.0 0.00 0.00 0.00 86 1018.6
20260509214557 46 95 0.0 1.0 0.00 0.00 0.00 85 1018.6
20260509214216 46 95 0.0 1.0 0.00 0.00 0.00 85 1018.6
20260509213917 46 95 0.0 1.0 0.00 0.00 0.00 85 1018.6
20260509213616 46 0.0 0.0 0.00 0.00 0.00 85 1018.6
20260509213318 46 0.0 0.0 0.00 0.00 0.00 85 1018.6
20260509213016 46 0.0 0.0 0.00 0.00 0.00 85 1018.6
20260509212719 46 0.0 0.0 0.00 0.00 0.00 85 1018.6
20260509212538 46 0.0 0.0 0.00 0.00 0.00 85 1018.6
20260509212156 47 0.0 0.0 0.00 0.00 0.00 85 1018.6
20260509211816 46 0.0 0.0 0.00 0.00 0.00 85 1018.6
20260509211517 46 0.0 0.0 0.00 0.00 0.00 85 1018.7
20260509211218 46 0.0 0.0 0.00 0.00 0.00 85 1018.6
20260509210918 47 0.0 0.0 0.00 0.00 0.00 85 1018.7
20260509210616 47 0.0 0.0 0.00 0.00 0.00 84 1018.6
20260509210317 47 0.0 0.0 0.00 0.00 0.00 85 1018.6
20260509210016 47 0.0 0.0 0.00 0.00 0.00 84 1018.6
20260509205721 47 0.0 0.0 0.00 0.00 0.00 84 1018.7
20260509205415 47 0.0 0.0 0.00 0.00 0.00 84 1018.6
20260509205118 47 0.0 0.0 0.00 0.00 0.00 84 1018.6
20260509204818 47 95 0.0 1.0 0.00 0.00 0.00 84 1018.6
20260509204556 47 95 0.0 1.0 0.00 0.00 0.00 84 1018.6
20260509204215 47 95 0.0 1.0 0.00 0.00 0.00 84 1018.6
20260509203916 47 95 0.0 1.0 0.00 0.00 0.00 84 1018.6
20260509203617 47 95 0.0 1.0 0.00 0.00 0.00 83 1018.6
20260509203316 47 95 0.0 1.0 0.00 0.00 0.00 84 1018.6
20260509203018 47 95 0.0 1.0 0.00 0.00 0.00 83 1018.6
20260509202718 47 95 0.0 1.0 0.00 0.00 0.00 83 1018.6
20260509202415 47 95 0.0 1.0 0.00 0.00 0.00 83 1018.7
20260509202117 48 95 0.0 1.0 0.00 0.00 0.00 83 1018.7
20260509201816 48 0.0 0.0 0.00 0.00 0.00 83 1018.7
20260509201518 48 95 0.0 1.0 0.00 0.00 0.00 83 1018.6
20260509201218 48 0.0 0.0 0.00 0.00 0.00 82 1018.7
20260509200920 48 0.0 0.0 0.00 0.00 0.00 82 1018.7
20260509200618 48 0.0 0.0 0.00 0.00 0.00 82 1018.7
20260509200316 48 0.0 0.0 0.00 0.00 0.00 82 1018.6
20260509200017 49 0.0 0.0 0.00 0.00 0.00 81 1018.7
20260509195756 49 0.0 0.0 0.00 0.00 0.00 81 1018.6
20260509195417 49 0.0 0.0 0.00 0.00 0.00 81 1018.6
20260509195116 49 0.0 0.0 0.00 0.00 0.00 81 1018.7
20260509194818 49 0.0 0.0 0.00 0.00 0.00 81 1018.6
20260509194557 49 0.0 0.0 0.00 0.00 0.00 81 1018.6
20260509194215 49 0.0 0.0 0.00 0.00 0.00 80 1018.6
20260509193957 50 0.0 0.0 0.00 0.00 0.00 80 1018.6
20260509193656 50 0.0 0.0 0.00 0.00 0.00 80 1018.6
20260509193318 50 0.0 0.0 0.00 0.00 0.00 80 1018.7
20260509193016 50 0.0 0.0 0.00 0.00 0.00 80 1018.6
20260509192720 50 0.0 0.0 0.00 0.00 0.00 80 1018.6
20260509192420 51 95 0.0 1.0 0.00 0.00 0.00 79 1018.6
20260509192116 51 95 0.0 1.0 0.00 0.00 0.00 79 1018.6
20260509191817 51 0.0 0.0 0.00 0.00 0.00 79 1018.6
20260509191516 51 0.0 0.0 0.00 0.00 0.00 79 1018.6
20260509191301 52 0.0 0.0 0.00 0.00 0.00 79 1018.6
20260509190916 52 0.0 0.0 0.00 0.00 0.00 78 1018.6
20260509190618 52 0.0 0.0 0.00 0.00 0.00 78 1018.5
20260509190317 52 0.0 0.0 0.00 0.00 0.00 77 1018.5
20260509190015 52 0.0 0.0 0.00 0.00 0.00 77 1018.4
20260509185715 53 0.0 0.0 0.00 0.00 0.00 76 1018.5
20260509185416 53 0.0 0.0 0.00 0.00 0.00 75 1018.4
20260509185157 53 0.0 0.0 0.00 0.00 0.00 74 1018.3
20260509184819 54 0.0 0.0 0.00 0.00 0.00 74 1018.3
20260509184515 54 95 0.0 1.0 0.00 0.00 0.00 72 1018.3
20260509184258 55 95 0.0 1.0 0.00 0.00 0.00 72 1018.3
20260509183915 55 95 1.0 2.0 0.00 0.00 0.00 70 1018.3
20260509183620 55 95 1.0 2.0 0.00 0.00 0.00 70 1018.3
20260509183315 56 95 0.0 2.0 0.00 0.00 0.00 69 1018.3
20260509183017 56 95 1.0 3.0 0.00 0.00 0.00 69 1018.3
20260509182716 56 94 1.0 3.0 0.00 0.00 0.00 68 1018.3
20260509182417 57 87 2.0 3.0 0.00 0.00 0.00 67 1018.2
20260509182201 57 88 2.0 4.0 0.00 0.00 0.00 66 1018.3
20260509181818 58 92 2.0 3.0 0.00 0.00 0.00 65 1018.3
20260509181517 58 88 2.0 4.0 0.00 0.00 0.00 64 1018.3
20260509181256 58 85 3.0 4.0 0.00 0.00 0.00 64 1018.3
20260509180957 58 89 3.0 4.0 0.00 0.00 0.00 63 1018.2
20260509180619 59 75 2.0 4.0 0.00 0.00 0.00 62 1018.3
20260509180438 59 75 3.0 6.0 0.00 0.00 0.00 62 1018.2
20260509180017 59 73 3.0 6.0 0.00 0.00 0.00 62 1018.3
20260509175718 59 75 3.0 6.0 0.00 0.00 0.00 61 1018.2
20260509175417 59 74 4.0 6.0 0.00 0.00 0.00 61 1018.2
20260509175156 59 80 3.0 4.0 0.00 0.00 0.00 61 1018.2
20260509174817 60 73 2.0 4.0 0.00 0.00 0.00 61 1018.2
20260509174516 60 60 2.0 3.0 0.00 0.00 0.00 60 1018.2
20260509174218 60 55 2.0 7.0 0.00 0.00 0.00 60 1018.3
20260509173918 60 60 2.0 5.0 0.00 0.00 0.00 60 1018.3
20260509173615 60 76 2.0 3.0 0.00 0.00 0.00 60 1018.3
20260509173320 61 48 1.0 3.0 0.00 0.00 0.00 59 1018.4
20260509173056 61 58 3.0 4.0 0.00 0.00 0.00 59 1018.4
20260509172717 61 75 2.0 4.0 0.00 0.00 0.00 60 1018.4
20260509172424 61 86 3.0 4.0 0.00 0.00 0.00 59 1018.4
20260509172121 61 89 4.0 8.0 0.00 0.00 0.00 59 1018.4
20260509171818 61 85 4.0 6.0 0.00 0.00 0.00 58 1018.4
20260509171515 61 110 3.0 4.0 0.00 0.00 0.00 57 1018.4
20260509171216 61 132 3.0 5.0 0.00 0.00 0.00 57 1018.4
20260509171039 61 116 3.0 5.0 0.00 0.00 0.00 57 1018.5
20260509170617 61 122 3.0 5.0 0.00 0.00 0.00 57 1018.5
20260509170316 61 123 3.0 5.0 0.00 0.00 0.00 58 1018.6
20260509170016 61 125 2.0 4.0 0.00 0.00 0.00 57 1018.6
20260509165718 61 110 2.0 3.0 0.00 0.00 0.00 59 1018.6
20260509165415 61 97 2.0 4.0 0.00 0.00 0.00 58 1018.6
20260509165117 61 118 3.0 4.0 0.00 0.00 0.00 57 1018.6
20260509164815 61 110 2.0 3.0 0.00 0.00 0.00 58 1018.6
20260509164600 61 119 3.0 4.0 0.00 0.00 0.00 59 1018.6
20260509164216 61 123 3.0 4.0 0.00 0.00 0.00 59 1018.6
20260509163918 60 125 2.0 5.0 0.00 0.00 0.00 59 1018.6
20260509163616 60 105 3.0 4.0 0.00 0.00 0.00 58 1018.6
20260509163417 61 118 2.0 4.0 0.00 0.00 0.00 58 1018.6
20260509162755 61 118 2.0 4.0 0.00 0.00 0.00 58 1018.7
20260509162535 61 111 3.0 4.0 0.00 0.00 0.00 57 1018.7
20260509162116 61 119 3.0 5.0 0.00 0.00 0.00 57 1018.7
20260509161821 61 131 3.0 4.0 0.00 0.00 0.00 57 1018.8
20260509161517 61 108 2.0 4.0 0.00 0.00 0.00 57 1018.8
20260509161256 61 107 2.0 4.0 0.00 0.00 0.00 57 1018.9
20260509160917 61 122 2.0 4.0 0.00 0.00 0.00 57 1018.9
20260509160618 61 138 1.0 3.0 0.00 0.00 0.00 56 1018.9
20260509160317 61 139 2.0 3.0 0.00 0.00 0.00 55 1019.0
20260509160056 61 135 4.0 7.0 0.00 0.00 0.00 55 1019.0
20260509155718 61 121 3.0 4.0 0.00 0.00 0.00 56 1019.0
20260509155421 61 123 2.0 5.0 0.00 0.00 0.00 55 1019.1
20260509155117 61 116 2.0 4.0 0.00 0.00 0.00 56 1019.1
20260509154817 61 118 3.0 4.0 0.00 0.00 0.00 56 1019.1
20260509154516 61 115 4.0 5.0 0.00 0.00 0.00 56 1019.1
20260509154217 61 116 3.0 5.0 0.00 0.00 0.00 56 1019.1